KI5NYZ-13 Weather Reports


time (UTC)temp
F
wind
direction
speed
knots
gust
knots
rain 1hr
in
rain 24hr
in
rain mn
in
humidity
%
barometer
mb
20260903111617 70 168 0.0 0.9 0.00 0.29 0.00 59 1010.9
20260903101307 72 208 0.0 1.7 0.00 0.29 0.00 55 1010.4
20260903094306 73 189 0.9 0.9 0.00 0.29 0.00 53 1010.2
20260903091305 73 179 0.9 0.9 0.00 0.29 0.00 53 1010.3
20260903084304 72 194 0.0 0.0 0.00 0.29 0.00 55 1010.5
20260903081303 75 178 0.0 0.0 0.00 0.29 0.00 49 1010.0
20260903074302 77 185 1.7 1.7 0.00 0.29 0.00 45 1009.8
20260903071301 77 183 0.9 0.9 0.00 0.29 0.00 45 1009.6
20260903064300 80 185 1.7 1.7 0.00 0.29 0.00 41 1009.0
20260903061259 81 187 1.7 1.7 0.00 0.29 0.00 39 1008.8
20260903054258 79 177 1.7 1.7 0.00 0.29 0.00 39 1009.0
20260903051257 79 191 0.0 0.0 0.00 0.29 0.00 41 1009.1
20260903044256 80 202 0.0 0.0 0.00 0.29 0.29 40 1009.0
20260903041255 82 182 0.9 0.9 0.00 0.29 0.29 39 1008.7
20260903034254 84 179 0.9 0.9 0.00 0.29 0.29 36 1008.3
20260903031253 85 190 0.9 0.9 0.00 0.29 0.29 35 1007.8
20260903024252 85 181 0.9 0.9 0.00 0.29 0.29 34 1007.3
20260903021251 87 188 0.0 0.0 0.00 0.29 0.29 32 1006.7
20260903014250 89 183 0.0 0.0 0.00 0.29 0.29 31 1006.1
20260903011249 92 182 0.9 0.9 0.00 0.29 0.29 29 1005.4
20260903004248 97 192 0.0 0.0 0.00 0.29 0.29 25 1004.4
20260903001247 98 187 0.0 0.0 0.00 0.29 0.29 23 1004.0
20260902234246 97 166 0.9 0.9 0.00 0.29 0.29 24 1004.3
20260902231245 99 185 3.5 3.5 0.00 0.30 0.28 23 1004.1
20260902224244 100 169 0.0 0.9 0.00 0.31 0.28 22 1004.0
20260902221243 99 146 0.9 1.7 0.00 0.34 0.28 23 1004.4
20260902214242 100 153 0.9 0.9 0.01 0.35 0.27 23 1004.5
20260902211242 98 199 0.9 2.6 0.00 0.37 0.27 23 1005.1
20260902204240 98 155 0.9 0.9 0.01 0.40 0.26 23 1005.6
20260902201240 98 226 2.6 3.5 0.02 0.41 0.26 24 1006.1
20260902194240 97 186 2.6 2.6 0.02 0.41 0.24 25 1006.7
20260902191236 98 203 2.6 3.5 0.02 0.42 0.23 25 1007.0
20260902184235 96 198 3.5 3.5 0.03 0.42 0.22 27 1007.8
20260902181234 95 198 3.5 3.5 0.04 0.43 0.20 28 1008.6
20260902174233 94 195 4.3 4.3 0.04 0.42 0.18 31 1009.4
20260902171232 92 188 4.3 4.3 0.03 0.42 0.15 33 1009.8
20260902164231 90 206 3.5 3.5 0.03 0.41 0.13 36 1010.3
20260902161230 88 205 2.6 3.5 0.06 0.42 0.11 38 1010.8
20260902154229 85 208 3.5 3.5 0.08 0.42 0.09 42 1011.3
20260902151228 83 198 3.5 3.5 0.04 0.39 0.04 44 1011.7
20260902144228 81 210 2.6 3.5 0.00 0.37 0.00 47 1012.1
20260902141227 76 190 1.7 1.7 0.00 0.36 0.00 52 1013.0
20260902134225 73 249 1.7 1.7 0.00 0.36 0.00 59 1013.7
20260902131224 72 204 0.9 0.9 0.00 0.36 0.00 58 1013.3
20260902124223 70 186 0.9 0.9 0.00 0.36 0.00 60 1013.4
20260902121222 70 193 0.9 0.9 0.00 0.36 0.00 60 1013.4
20260902114221 71 206 0.9 0.9 0.00 0.36 0.00 58 1013.1